Regional Weather Roundup
Issued by NWS

Home | Current Version | Previous Version | Graphics & Text | Print | Product List | Glossary On
Versions: 1 2 3 4 5 6 7 8 9 10 11 12 13 14 15 16 17 18 19 20 21 22 23 24 25 26 27
000
ASUS45 KTFX 261010
RWRMT
MONTANA REGIONAL WEATHER ROUNDUP
NATIONAL WEATHER SERVICE GREAT FALLS MT
300 AM MST SUN FEB 26 2017

NOTE: "FAIR" INDICATES FEW OR NO CLOUDS BELOW 12000 FEET WITH NO
SIGNIFICANT WEATHER AND/OR OBSTRUCTIONS TO VISIBILITY.

MTZ001>007-043-261100-
WEST OF THE DIVIDE

CITY           SKY/WX    TMP DP  RH WIND       PRES   REMARKS
KALISPELL      LGT SNOW  26  23  88 S10       29.76F FOG     WCI  16
MISSOULA       CLOUDY    25  23  92 CALM      29.80F
BUTTE          CLOUDY    21   7  54 W9        29.72F WCI  11
MULLAN PASS    SNOW      15  13  91 VRB6      29.60F VSB 1/2 WCI   6
ANACONDA         N/A     21   9  58 S6        29.73F WCI  14
DEER LODGE       N/A     21  14  73 CALM      29.76F
EUREKA           N/A     25  21  86 S9        29.76F WCI  15
HAMILTON         N/A     28  14  54 SE13      29.78F WCI  18
LIBBY            N/A     25  25 100 CALM      29.74F
PLAINS           N/A     27  19  71 CALM      29.81F
RONAN            N/A     25  22  88 CALM      29.83F
$$

MTZ008-052>055-261100-
SOUTHWEST MONTANA

CITY           SKY/WX    TMP DP  RH WIND       PRES   REMARKS
BOZEMAN        CLOUDY    21  13  71 CALM      29.78S
DILLON         CLOUDY    21   5  50 SW18      29.75F WCI   6
W YELLOWSTONE  CLOUDY    10   7  85 SW9       29.78F WCI  -2
ENNIS          CLOUDY    19   7  58 S14       29.81S WCI   6
THREE FORKS      N/A     27  27 100 W5        29.79S
TWIN BRIDGES     N/A     24   7  48 S8        29.78F WCI  15
$$

MTZ009-010-012-014-046-048-049-054-261100-
EAST SLOPES AND CENTRAL MONTANA

CITY           SKY/WX    TMP DP  RH WIND       PRES   REMARKS
CUT BANK       LGT SNOW  22  19  89 N12       29.69S FOG     WCI  10
GREAT FALLS    CLOUDY    26  15  63 NW10      29.71R WCI  16
MALMSTROM AFB  FLURRIES  26  20  80 W10G20    29.73R WCI  16
HELENA         CLOUDY    28  12  51 SW7       29.76S WCI  21
AUGUSTA        CLOUDY    25   8  49 W9        29.66S WCI  15
BOWMANS CRNR   CLOUDY    23  11  60 SW8       29.68R WCI  14
CHOTEAU          N/A     28   9  43 W9G20     29.70S WCI  20
CONRAD           N/A     27  17  65 W9        29.74S WCI  18
POWER          FLURRIES  23  19  87 W5        29.69S
RAYNESFORD     LGT SNOW  24  19  83 SW17      29.70R FOG     WCI  10
ULM            MOCLDY    28  11  49 MISG      29.72S
$$

MTZ011-013-016-021-045-047-050-051-261100-
NORTH CENTRAL MONTANA

CITY           SKY/WX    TMP DP  RH WIND       PRES   REMARKS
HAVRE          LGT SNOW  28  23  81 W24G32    29.66R WCI  14
LEWISTOWN      CLOUDY    24  14  65 NW18G26   29.66S WCI  10
N BAR RANCH    MIX PCPN  21  14  73 NW10G16   29.66S WCI  10
CHINOOK          N/A     28  27  93 W14G21    29.64F WCI  17
DENTON         MOCLDY    26  18  73 W7        29.66R WCI  18
GEYSER         FLURRIES  24  18  77 W18G28    29.67S WCI  10
GRASS RANGE    FLURRIES  25  18  76 W21G33    29.63R WCI  10
JUDITH GAP     CLOUDY    24   8  50 NW10G18   29.64S WCI  13
ROY            MOCLDY    25  19  77 MISG      29.63S
STANFORD       MOCLDY    23  14  69 W15       29.66R WCI  10
WINIFRED       FLURRIES  24  21  89 W13G25    29.66R WCI  12
$$

MTZ017>020-022>027-061-062-261100-
NORTHEAST MONTANA

CITY           SKY/WX    TMP DP  RH WIND       PRES   REMARKS
GLASGOW        CLOUDY    17  14  88 SE6       29.64S WCI   9
JORDAN           N/A     26  18  71 W9        29.65R WCI  17
SIDNEY         PTCLDY    15  11  83 E5        29.69F
WOLF POINT     CLOUDY    11   7  84 E3        29.68S
PLENTYWOOD       N/A     10   9  92 CALM      29.68S
POPLAR           N/A     10   7  85 NE7       29.69S WCI   0
SCOBEY           N/A     12   3  67 CALM      29.66R
$$

MTZ028>42-056>058-261100-
SOUTHCENTRAL AND SOUTHEAST MONTANA

CITY           SKY/WX    TMP DP  RH WIND       PRES   REMARKS
BAKER          CLEAR     20  14  77 SW14      29.64F WCI   7
BILLINGS       MOCLDY    25  11  55 SW10      29.71S WCI  15
LIVINGSTON     CLOUDY    22   7  52 W21       29.73R WCI   6
MILES CITY     CLOUDY    25  17  72 SW10      29.68S WCI  15
BIG TIMBER     CLOUDY    23   9  54 W31G40    29.71S WCI   5
EKALAKA          N/A     20   9  62 SW10      29.65S WCI   9
FORSYTH          N/A     27  12  54 SW6       29.69S WCI  20
HARLOWTON      MOCLDY    23  15  69 W31       29.68S WCI   6
LAUREL           N/A     17   5  59 W6        29.71S WCI   9
ROUNDUP          N/A     28   7  41 SW14      29.63R WCI  17
$$

REGIONAL REPORTS...DAKOTAS

CITY           SKY/WX    TMP DP  RH WIND       PRES   REMARKS
WILLISTON      CLOUDY     8   5  87 CALM      29.71F
MINOT          CLOUDY     0  -4  83 SW6       29.73S WCI -12
DICKINSON      CLOUDY    14  11  87 E6        29.65S WCI   5
BEACH            N/A    N/A N/A N/A MISG        N/A
CROSBY           N/A      3   1  92 S9        29.72F WCI -11
TIOGA          CLOUDY    -2  -2 100 CALM      29.70F
WATFORD CITY   MOCLDY    12  10  92 NE3       29.71S
BISMARCK       CLEAR     14   9  80 NW8       29.75R WCI   3
GRAND FORKS    FLURRIES  13   5  70 N10       29.75S WCI   0
FARGO          CLOUDY    17  13  84 MISG      29.70R FOG
BUFFALO SD       N/A     18  12  77 W10       29.59S WCI   6
RAPID CITY     PTCLDY    16   8  71 W7        29.72F WCI   6
$$

REGIONAL REPORTS...WYOMING/IDAHO/WASHINGTON

CITY           SKY/WX    TMP DP  RH WIND       PRES   REMARKS
GILLETTE       CLEAR     17   7  64 SW16      29.70S WCI   2
SHERIDAN       CLEAR     13   6  74 SE15      29.70S WCI  -3
BUFFALO WY     CLEAR     14  -1  51 W7        29.68S WCI   4
CODY           PTCLDY    22   2  42 W16G30    29.68R WCI   8
YELLOWSTONE LA   N/A      6   3  87 CALM      29.73F
IDAHO FALLS    CLOUDY     8   6  92 SW8       29.90S WCI  -4
SALMON         CLOUDY    27   9  46 SW9       29.82F WCI  17
BOISE          MOCLDY    29  19  66 SE10      29.91F WCI  20
SPOKANE        FLURRIES  29  24  82 SW10      29.77F WCI  20
$$

REGIONAL REPORTS...ALBERTA

CITY           SKY/WX    TMP DP  RH WIND       PRES   REMARKS
EDMONTON       CLOUDY    19  12  73 NW12G17   29.78R WCI   7
CALGARY        CLOUDY    18  12  79 N8        29.72R FOG     WCI   7
LETHBRIDGE     LGT SNOW  23  21  93 NW17G23   29.73R WCI   9
MEDICINE HAT   FLURRIES  23  19  86 NW17      29.71R WCI   9
WATERTON GATE    N/A     21  14  73 SW15G23     N/A  WCI   8
MILK RIVER       N/A     23  21  93 N15         N/A  WCI  10
ONEFOUR          N/A     21  19  93 NW20        N/A  WCI   6
$$

REGIONAL REPORTS...SASKATCHEWAN

CITY           SKY/WX    TMP DP  RH WIND       PRES   REMARKS
SWIFT CURRENT  LGT SNOW  16  14  93 W8        29.61R WCI   5
REGINA         MOCLDY     9   5  85 S6        29.67S WCI  -1
SASKATOON      PTCLDY     9   5  85 NW8       29.67S WCI  -4
VAL MARIE        N/A     16  12  86 CALM        N/A
ROCKGLEN         N/A      9   7  92 S6          N/A  WCI  -1
ASSINIBOIA       N/A     19  16  86 NW13        N/A  WCI   7
$$




USA.gov is the U.S. government's official web portal to all federal, state and local government web resources and services.